Phoenix, AZ

7:09 AM MST on August 29, 2016 (GMT -0700)
Phoenix Sky Harbor International

Weather History for KPHX - November, 2011

Change the Weather History Date:

Friday, November 25, 2011

  Actual Average Record
Temperature  
Mean Temperature 64 °F 60 °F  
Max Temperature 72 °F 71 °F 88 °F (1950)
Min Temperature 56 °F 49 °F 32 °F (1938)
Degree Days  
Heating Degree Days 1 5  
Month to date heating degree days 58 66  
Since 1 July heating degree days 58 72  
Cooling Degree Days 0 1  
Month to date cooling degree days 33 69  
Year to date cooling degree days 4897 4605  
Growing Degree Days 12 (Base 50)    
Moisture  
Dew Point 44 °F    
Average Humidity 54    
Maximum Humidity 72    
Minimum Humidity 36    
Precipitation  
Precipitation 0.00 in 0.03 in 0.64 in (1896)
Month to date precipitation 0.81 0.52  
Year to date precipitation 3.56 7.02  
Snow  
Snow 0.00 in - - ()
Month to date snowfall 0.0  
Year to date snowfall 0.0  
Since 1 July snowfall 0.0  
Snow Depth -    
Sea Level Pressure  
Sea Level Pressure 30.03 in    
Wind  
Wind Speed 5 mph (WSW)    
Max Wind Speed 14 mph    
Max Gust Speed 17 mph    
Visibility 10 miles    
Events      
T = Trace of Precipitation, MM = Missing Value Source: NWS Daily Summary

Daily Weather History Graph

Daily Weather History Graph

Search for Another Location

Airport or City:

Trip Planner

Search our weather history database for the weather conditions in past years. The results will help you decide how hot, cold, wet, or windy it might be!

Date:

Astronomy

Nov. 25, 2011 Rise Set
Actual Time 7:08 AM MST 5:21 PM MST
Civil Twilight 6:41 AM MST 5:48 PM MST
Nautical Twilight 6:11 AM MST 6:18 PM MST
Astronomical Twilight 5:41 AM MST 6:48 PM MST
Moon 7:37 AM MST (11/25) 5:55 PM MST (11/25)
Length of Visible Light 11h 06m
Length of Day
10h 12m
New Moon, 0% of the Moon is Illuminated
Nov 25
New Moon
Dec 2
First Quarter
Dec 10
Full
Dec 17
Last Quarter
Dec 24
New

Hourly Weather History & Observations

Time (MST) Temp. Dew Point Humidity Pressure Visibility Wind Dir Wind Speed Gust Speed Precip Events Conditions
12:51 AM 61.0 °F 48.0 °F 62% 29.95 in 10.0 mi SW 4.6 mph - N/A   Overcast
1:51 AM 60.1 °F 48.0 °F 64% 29.95 in 10.0 mi Calm Calm - N/A   Overcast
2:51 AM 60.1 °F 46.9 °F 62% 29.95 in 10.0 mi Calm Calm - N/A   Mostly Cloudy
3:51 AM 57.9 °F 48.9 °F 72% 29.96 in 10.0 mi East 3.5 mph - N/A   Mostly Cloudy
5:51 AM 57.2 °F 46.4 °F 67% 29.99 in 10.0 mi Calm Calm - N/A   Mostly Cloudy
6:51 AM 55.4 °F 46.4 °F 72% 29.99 in 10.0 mi ENE 3.5 mph - N/A   Scattered Clouds
7:51 AM 57.2 °F 44.6 °F 63% 30.01 in 10.0 mi North 4.6 mph - N/A   Scattered Clouds
8:51 AM 57.2 °F 44.6 °F 63% 30.03 in 10.0 mi NNW 4.6 mph - N/A   Scattered Clouds
9:51 AM 60.1 °F 45.0 °F 57% 30.06 in 10.0 mi West 4.6 mph - N/A   Partly Cloudy
10:51 AM 62.1 °F 45.0 °F 53% 30.07 in 10.0 mi West 6.9 mph - N/A   Partly Cloudy
11:51 AM 64.9 °F 46.0 °F 50% 30.05 in 10.0 mi Variable 6.9 mph - N/A   Partly Cloudy
12:51 PM 66.0 °F 45.0 °F 47% 30.02 in 10.0 mi WNW 9.2 mph - N/A   Partly Cloudy
1:51 PM 69.1 °F 44.1 °F 40% 30.01 in 10.0 mi West 9.2 mph - N/A   Partly Cloudy
2:51 PM 69.8 °F 42.8 °F 38% 30.04 in 10.0 mi West 9.2 mph - N/A   Partly Cloudy
3:51 PM 69.8 °F 42.8 °F 38% 30.03 in 10.0 mi WSW 9.2 mph - N/A   Partly Cloudy
4:51 PM 69.1 °F 41.0 °F 36% 30.01 in 10.0 mi West 9.2 mph - N/A   Partly Cloudy
5:51 PM 66.9 °F 41.0 °F 39% 30.03 in 10.0 mi SSW 3.5 mph - N/A   Clear
6:51 PM 64.9 °F 42.1 °F 43% 30.06 in 10.0 mi SE 4.6 mph - N/A   Clear
7:51 PM 64.4 °F 41.0 °F 42% 30.10 in 10.0 mi Calm Calm - N/A   Clear
8:51 PM 60.1 °F 43.0 °F 53% 30.10 in 10.0 mi East 3.5 mph - N/A   Clear
9:51 PM 60.1 °F 42.1 °F 51% 30.12 in 10.0 mi East 8.1 mph - N/A   Partly Cloudy
10:51 PM 59.0 °F 43.0 °F 55% 30.13 in 10.0 mi East 3.5 mph - N/A   Partly Cloudy
11:51 PM 57.0 °F 45.0 °F 64% 30.14 in 10.0 mi Calm Calm - N/A   Partly Cloudy